Location: Banios
(43.0451°N, 0.2335°E)
Time: 09:22:32
(UTC+00:00)

A-11 Canister half - Pass Details

Date: 16 May 2021
Orbit: 1527 x 1681 km, 47.3° (Epoch: 22 June)

Event Time Altitude Azimuth Distance (km) Brightness Sun altitude
Rises 05:57:31 0° 188° (S) 4,674 11.3 13.3°
Reaches altitude 10° 06:01:23 10° 174° (S) 3,708 11.0 14.0°
Maximum altitude 06:08:08 23° 127° (SE) 2,876 11.2 15.2°
Drops below altitude 10° 06:14:59 10° 81° (E) 3,795 13.9 16.4°
Sets 06:18:57 0° 68° (ENE) 4,810 13.2 17.1°
